Weather History for KEFT - October, 2013

Change the Weather History Date:

Sunday, October 27, 2013

  Actual Average Record
Temperature  
Mean Temperature 42 °F -  
Max Temperature 54 °F 0 °F 73 °F (2014)
Min Temperature 29 °F - 21 °F (1997)
Degree Days  
Heating Degree Days 24    
Moisture  
Dew Point 28 °F    
Average Humidity 62    
Maximum Humidity 99    
Minimum Humidity 36    
Precipitation  
Precipitation 0.00 in - - ()
Sea Level Pressure  
Sea Level Pressure 29.98 in    
Wind  
Wind Speed 10 mph (SW)    
Max Wind Speed 20 mph    
Max Gust Speed 26 mph    
Visibility 10 miles    
Events      
Averages and records for this station are not official NWS values.
T = Trace of Precipitation, MM = Missing Value Source: NWS Daily Summary

Daily Weather History Graph

Daily Weather History Graph

Search for Another Location

Airport or City:

Trip Planner

Search our weather history database for the weather conditions in past years. The results will help you decide how hot, cold, wet, or windy it might be!

Date:

Astronomy

Oct. 27, 2013 Rise Set
Actual Time 7:26 AM CDT 5:57 PM CDT
Civil Twilight 6:57 AM CDT 6:26 PM CDT
Nautical Twilight 6:24 AM CDT 6:59 PM CDT
Astronomical Twilight 5:51 AM CDT 7:32 PM CDT
Moon 12:14 AM CDT (10/27) 2:14 PM CDT (10/27)
Length of Visible Light 11h 29m
Length of Day
10h 31m
Last Quarter, 43% of the Moon is Illuminated
Oct 27
Last Quarter
Nov 3
New
Nov 9
First Quarter
Nov 17
Full
Nov 25
Last Quarter

Hourly Weather History & Observations

Time (CDT) Temp. Windchill Dew Point Humidity Pressure Visibility Wind Dir Wind Speed Gust Speed Precip Events Conditions
12:15 AM 37.0 °F 30.4 °F 27.3 °F 68% 30.06 in 10.0 mi West 9.2 mph - N/A   Clear
12:35 AM 36.9 °F 30.7 °F 27.1 °F 68% 30.05 in 10.0 mi West 8.1 mph - N/A   Clear
12:55 AM 36.3 °F 30.1 °F 26.8 °F 68% 30.04 in 10.0 mi West 8.1 mph - N/A   Clear
1:15 AM 38.7 °F 32.4 °F 26.6 °F 62% 30.04 in 10.0 mi West 9.2 mph - N/A   Clear
1:35 AM 36.7 °F 32.0 °F 26.6 °F 67% 30.03 in 10.0 mi West 5.8 mph - N/A   Clear
1:55 AM 36.1 °F 30.6 °F 26.6 °F 68% 30.04 in 10.0 mi West 6.9 mph - N/A   Clear
2:15 AM 32.9 °F 26.7 °F 25.5 °F 74% 30.03 in 10.0 mi WSW 6.9 mph - N/A   Clear
2:35 AM 35.1 °F 26.9 °F 27.0 °F 72% 30.03 in 10.0 mi West 11.5 mph - N/A   Clear
2:55 AM 34.0 °F 25.0 °F 26.8 °F 75% 30.02 in 10.0 mi West 12.7 mph - N/A   Clear
3:15 AM 33.8 °F 24.8 °F 26.6 °F 75% 30.02 in 10.0 mi West 12.7 mph - N/A   Clear
3:35 AM 33.8 °F 25.3 °F 27.0 °F 76% 30.01 in 10.0 mi West 11.5 mph - N/A   Clear
3:55 AM 33.4 °F 25.4 °F 26.8 °F 77% 30.01 in 10.0 mi WSW 10.4 mph - N/A   Clear
4:15 AM 34.2 °F 25.7 °F 27.0 °F 75% 30.01 in 10.0 mi West 11.5 mph - N/A   Clear
4:35 AM 33.8 °F 25.8 °F 26.8 °F 75% 30.01 in 10.0 mi West 10.4 mph - N/A   Clear
4:55 AM 33.8 °F 25.8 °F 27.0 °F 76% 30.01 in 10.0 mi West 10.4 mph - N/A   Clear
5:15 AM 32.5 °F 25.5 °F 28.2 °F 84% 30.00 in 10.0 mi WSW 8.1 mph - N/A   Clear
5:35 AM 32.0 °F 25.6 °F 26.8 °F 81% 30.00 in 10.0 mi SW 6.9 mph - N/A   Clear
5:55 AM 30.9 °F 24.3 °F 28.8 °F 92% 30.01 in 10.0 mi SW 6.9 mph - N/A   Clear
6:15 AM 30.4 °F 23.6 °F 29.1 °F 95% 30.00 in 10.0 mi SW 6.9 mph - N/A   Clear
6:35 AM 29.3 °F 22.3 °F 28.9 °F 99% 30.01 in 10.0 mi SW 6.9 mph - N/A   Clear
6:55 AM 31.3 °F 24.7 °F 30.4 °F 96% 30.01 in 10.0 mi SW 6.9 mph - N/A   Clear
7:15 AM 31.1 °F 25.4 °F 29.3 °F 93% 30.01 in 10.0 mi SW 5.8 mph - N/A   Clear
7:35 AM 29.7 °F 23.7 °F 29.3 °F 99% 30.02 in 10.0 mi SSW 5.8 mph - N/A   Clear
7:55 AM 29.1 °F 22.1 °F 28.9 °F 99% 30.01 in 10.0 mi SSW 6.9 mph - N/A   Clear
8:15 AM 30.7 °F 24.1 °F 30.4 °F 99% 30.01 in 10.0 mi SW 6.9 mph - N/A   Clear
8:35 AM 34.0 °F 28.0 °F 31.5 °F 90% 30.01 in 10.0 mi SW 6.9 mph - N/A   Clear
8:55 AM 36.3 °F 29.5 °F 29.1 °F 75% 30.01 in 10.0 mi SW 9.2 mph - N/A   Clear
9:15 AM 37.6 °F 30.0 °F 29.3 °F 72% 30.02 in 10.0 mi WSW 11.5 mph - N/A   Clear
9:35 AM 39.0 °F 31.8 °F 29.8 °F 70% 30.01 in 10.0 mi WSW 11.5 mph - N/A   Clear
9:55 AM 41.0 °F 34.3 °F 30.2 °F 65% 30.02 in 10.0 mi WSW 11.5 mph 16.1 mph N/A   Clear
10:15 AM 43.2 °F 36.2 °F 29.5 °F 59% 30.01 in 10.0 mi WSW 13.8 mph - N/A   Clear
10:35 AM 44.6 °F 38.4 °F 29.3 °F 55% 30.01 in 10.0 mi WSW 12.7 mph 18.4 mph N/A   Clear
10:55 AM 45.9 °F 40.4 °F 29.8 °F 54% 30.00 in 10.0 mi SW 11.5 mph - N/A   Clear
11:15 AM 46.8 °F - 28.0 °F 48% 30.00 in 10.0 mi WSW 17.3 mph 24.2 mph N/A   Clear
11:35 AM 47.3 °F - 27.5 °F 46% 30.00 in 10.0 mi WSW 19.6 mph 26.5 mph N/A   Clear
11:55 AM 48.7 °F - 28.6 °F 46% 30.00 in 10.0 mi WSW 19.6 mph - N/A   Clear
12:15 PM 48.6 °F - 28.2 °F 45% 29.99 in 10.0 mi WSW 16.1 mph - N/A   Clear
12:35 PM 49.3 °F - 28.4 °F 45% 29.98 in 10.0 mi WSW 18.4 mph 23.0 mph N/A   Clear
12:55 PM 50.2 °F - 28.8 °F 44% 29.97 in 10.0 mi WSW 13.8 mph 21.9 mph N/A   Clear
1:15 PM 50.4 °F - 28.9 °F 44% 29.95 in 10.0 mi SW 17.3 mph - N/A   Clear
1:35 PM 51.3 °F - 28.9 °F 42% 29.94 in 10.0 mi SW 16.1 mph 19.6 mph N/A   Clear
1:55 PM 52.2 °F - 28.9 °F 41% 29.94 in 10.0 mi SW 13.8 mph 21.9 mph N/A   Clear
2:15 PM 52.5 °F - 27.9 °F 39% 29.93 in 10.0 mi SW 16.1 mph 21.9 mph N/A   Clear
2:35 PM 53.1 °F - 28.9 °F 40% 29.93 in 10.0 mi SSW 16.1 mph 20.7 mph N/A   Clear
2:55 PM 53.2 °F - 28.0 °F 38% 29.92 in 10.0 mi SSW 13.8 mph 21.9 mph N/A   Clear
3:15 PM 53.2 °F - 27.1 °F 37% 29.92 in 10.0 mi SW 13.8 mph 25.3 mph N/A   Clear
3:35 PM 53.6 °F - 27.5 °F 37% 29.92 in 10.0 mi SW 19.6 mph - N/A   Clear
3:55 PM 54.0 °F - 28.2 °F 37% 29.92 in 10.0 mi SSW 18.4 mph 21.9 mph N/A   Clear
4:15 PM 54.0 °F - 27.9 °F 37% 29.92 in 10.0 mi SW 16.1 mph 21.9 mph N/A   Clear
4:35 PM 53.6 °F - 27.3 °F 36% 29.92 in 10.0 mi SW 15.0 mph 19.6 mph N/A   Clear
4:55 PM 52.7 °F - 27.5 °F 38% 29.91 in 10.0 mi SSW 12.7 mph - N/A   Clear
5:15 PM 52.2 °F - 27.9 °F 39% 29.91 in 10.0 mi SSW 12.7 mph 18.4 mph N/A   Clear
5:35 PM 50.9 °F - 28.0 °F 41% 29.91 in 10.0 mi SSW 12.7 mph - N/A   Clear
5:55 PM 49.1 °F - 28.4 °F 45% 29.91 in 10.0 mi SSW 10.4 mph - N/A   Clear
6:15 PM 47.3 °F - 28.4 °F 48% 29.92 in 10.0 mi SSW 11.5 mph - N/A   Clear
6:35 PM 46.0 °F 41.4 °F 29.1 °F 52% 29.92 in 10.0 mi South 9.2 mph - N/A   Clear
6:55 PM 44.6 °F 39.2 °F 29.3 °F 55% 29.92 in 10.0 mi SSW 10.4 mph - N/A   Clear
7:15 PM 44.8 °F 39.0 °F 29.3 °F 55% 29.92 in 10.0 mi SSW 11.5 mph - N/A   Clear
7:35 PM 44.6 °F 39.7 °F 29.3 °F 55% 29.93 in 10.0 mi SSW 9.2 mph - N/A   Clear
7:55 PM 44.2 °F 39.2 °F 28.9 °F 55% 29.94 in 10.0 mi SSW 9.2 mph - N/A   Clear
8:15 PM 43.2 °F 38.4 °F 29.1 °F 58% 29.95 in 10.0 mi SSW 8.1 mph - N/A   Clear
8:35 PM 42.4 °F 37.5 °F 28.9 °F 59% 29.96 in 10.0 mi SSW 8.1 mph - N/A   Clear
8:55 PM 42.8 °F 39.3 °F 28.9 °F 58% 29.97 in 10.0 mi SSW 5.8 mph - N/A   Clear
9:15 PM 43.7 °F 39.7 °F 28.8 °F 56% 29.99 in 10.0 mi WSW 6.9 mph - N/A   Scattered Clouds
9:35 PM 44.2 °F 39.7 °F 28.8 °F 55% 30.00 in 10.0 mi WSW 8.1 mph - N/A   Scattered Clouds
9:55 PM 42.4 °F 40.7 °F 28.9 °F 59% 30.00 in 10.0 mi WSW 3.5 mph - N/A   Mostly Cloudy
10:15 PM 43.0 °F 41.3 °F 29.1 °F 58% 30.00 in 10.0 mi SW 3.5 mph - N/A   Overcast
10:35 PM 43.5 °F - 29.1 °F 57% 30.01 in 10.0 mi Calm Calm - N/A   Mostly Cloudy
10:55 PM 42.3 °F 39.4 °F 29.1 °F 60% 30.01 in 10.0 mi South 4.6 mph - N/A   Scattered Clouds
11:15 PM 40.8 °F 37.8 °F 29.1 °F 63% 30.01 in 10.0 mi SSW 4.6 mph - N/A   Clear
11:35 PM 38.8 °F 34.6 °F 29.1 °F 68% 30.02 in 10.0 mi SSW 5.8 mph - N/A   Clear
11:55 PM 38.8 °F 34.6 °F 29.1 °F 68% 30.02 in 10.0 mi SSW 5.8 mph - N/A   Clear